Powrót do katalogu

STARLINK-4033

AktywnyŁącznośćVLEO
NORAD 52702·PAYLOAD·🇺🇸 United States

Wystrzelony May 18, 2022 z Cape Canaveral Space Force Station

Loading…

Następne Przeloty (najbliższe 24 godziny)

TLE

ŚwieżeSource: CelesTrak SupGP

Epoka: Sep 15, 2026, 01:36 UTC

1 52702C 22053AY  26258.06715278 -.00027052  00000+0 -79942-3 0  2586
2 52702  53.1605  13.1297 0001103  94.0428 286.0770 15.34398338    11

Śledź STARLINK-4033 w czasie rzeczywistym z AllMySat

Download on the App Store